Hourly Data Report for December 15, 2011

HALIFAX STANFIELD INT'L A
NOVA SCOTIA

44°52'48.060" N
63°30'00.050" W
145.40 m
8202250
71395
YHZ

Download Data

Hourly Data (December 2011)
Hourly Data Report for December 15, 2011
TIME
LST
Temp Definition
°C
Dew Point Definition
°C
Rel Hum Definition
%
Precip. Amount Definition
mm

Wind Dir Definition
10's deg

Wind Spd Definition
km/h
Visibility Definition
km
Stn Press Definition
kPa
Hmdx Definition


Wind Chill Definition


Weather Definition


00:00 -3.6 -7.8 73     0 24.1 100.96     Mostly Cloudy
01:00 -2.7 -7.3 71   18 4 24.1 100.95   -4 Mostly Cloudy
02:00 -2.5 -6.8 72   14 6 24.1 100.93   -5 Mostly Cloudy
03:00 -4.3 -7.6 78     0 24.1 101.00     Mainly Clear
04:00 -3.2 -7.6 72     0 24.1 100.98     Mostly Cloudy
05:00 -2.9 -6.8 74   3 4 24.1 100.94   -4 Mostly Cloudy
06:00 -3.1 -6.5 77   16 6 24.1 100.90   -6 Cloudy
07:00 -2.9 -6.1 79   14 6 24.1 100.88   -5 Cloudy
08:00 -2.7 -5.9 79   15 7 24.1 100.83   -6 Cloudy
09:00 -2.1 -5.4 78   15 9 24.1 100.83   -6 Cloudy
10:00 -1.4 -4.8 78   14 7 24.1 100.83   -4 Cloudy
11:00 -0.3 -3.7 78   14 9 24.1 100.71   -3 Cloudy
12:00 1.5 -3.1 71   18 19 24.1 100.57     Cloudy
13:00 1.0 -1.1 86   18 26 3.2 100.48     Snow
14:00 1.1 -0.1 92   15 17 24.1 100.33     Snow Showers
15:00 2.6 -0.5 80   18 28 24.1 100.20     Cloudy
16:00 3.1 0.7 84   18 32 16.1 100.11     Rain Showers
17:00 3.7 0.8 81   18 32 19.3 99.99     Cloudy
18:00 3.5 2.0 90   17 33 16.1 99.93     Rain Showers
19:00 3.9 2.0 87   18 43 16.1 99.84     Rain Showers
20:00 3.9 3.4 97   18 35 16.1 99.73     Rain
21:00 4.8 4.3 97   17 39 9.7 99.59     Rain, Fog
22:00 5.5 5.3 99   18 44 6.4 99.44     Rain, Fog
23:00 5.9 5.7 99   18 35 6.4 99.30     Rain, Fog

Notes on Data Quality.

Legend

  • E = Estimated
  • M = Missing
  • NA = Not Available*
  • [empty] = Indicates an unobserved value
Date modified: